Wind_Speed
32 33 34 34 34 34 34 35 35 36 36 36 37 38 40 41 42 43 43 43 44 45 46 47 48 49 49 50 51 52 52 53 53 53 55 56 57 57 58 60 61 62 63
33 33 34 34 34 34 35 35 36 36 37 38 39 40 41 42 43 44 44 44 45 46 48 49 50 51 51 52 53 54 55 56 57 56 57 58 59 60 62 63 64 64 64
33 33 33 34 34 35 36 36 37 37 38 39 40 41 42 43 44 44 45 46 47 48 50 51 52 53 53 54 56 56 57 58 59 60 60 61 62 64 65 66 66 66 67
33 33 33 34 35 36 36 37 38 38 39 40 41 42 43 44 45 46 47 48 49 51 52 53 54 55 56 57 58 59 60 61 62 63 63 64 66 67 68 68 67 68 69
33 34 34 35 35 36 36 37 38 39 40 41 42 43 44 45 47 48 49 50 52 53 54 55 56 57 58 59 60 61 63 64 65 66 66 67 68 69 69 70 70 71 71
34 34 34 35 36 36 37 38 39 40 41 42 44 45 46 47 48 49 51 52 54 55 56 57 58 59 60 62 63 64 65 66 67 68 69 70 70 71 71 72 73 73 72
33 34 35 35 36 37 38 39 40 41 42 44 45 47 48 49 50 51 53 55 56 57 58 59 60 61 63 64 64 65 67 68 69 70 71 71 71 72 73 73 73 74 74
34 34 35 36 37 38 39 40 41 42 43 45 46 47 48 49 51 53 55 56 58 59 60 61 62 63 64 65 66 67 68 69 70 71 72 72 72 73 73 73 74 74 72
34 35 36 37 38 38 39 40 41 43 45 46 47 48 50 52 54 55 57 58 59 60 61 62 63 64 65 67 68 69 68 68 69 70 71 71 72 72 72 73 72 71 66
34 35 36 37 38 39 40 41 43 44 45 47 48 50 52 53 55 57 59 60 61 62 62 63 65 66 67 68 69 69 69 69 69 70 71 71 71 70 70 70 68 65 61
34 35 36 37 38 39 41 42 44 45 47 48 50 52 53 55 57 59 60 62 62 62 63 64 66 67 68 68 69 69 70 70 71 71 70 70 69 68 66 65 62 58 54
35 36 37 38 39 41 42 44 45 47 48 50 52 53 55 57 58 60 62 63 63 64 65 66 67 68 68 68 69 70 70 72 72 71 69 67 66 64 61 58 55 52 50
36 37 38 39 41 42 43 45 47 48 50 52 54 55 56 58 60 61 62 63 65 66 67 67 68 68 68 68 69 70 71 71 70 68 66 64 62 59 56 53 50 48 46
37 38 39 41 42 43 45 47 48 50 52 53 55 56 58 59 60 62 63 65 66 67 68 68 68 68 68 69 69 69 68 68 66 64 62 60 58 55 52 49 47 44 41
38 40 41 42 44 45 47 48 50 52 53 55 56 58 59 60 61 63 65 66 67 68 69 68 68 68 68 67 67 65 64 63 61 60 58 55 53 51 48 45 42 38 35
40 41 43 44 45 47 48 49 51 53 55 56 58 59 60 62 63 65 66 67 68 69 69 68 68 67 66 65 64 63 61 60 58 56 54 51 49 46 43 39 36 33 30
42 43 44 45 47 48 49 51 52 54 56 58 59 61 62 63 64 66 67 68 69 69 69 68 67 66 65 63 62 61 59 57 55 52 49 46 44 41 38 35 32 29 27
43 44 45 46 48 49 51 52 54 56 57 58 60 62 63 64 66 67 68 69 69 69 68 67 66 64 62 61 59 57 55 52 49 47 44 42 40 37 34 31 28 26 24
44 45 47 48 50 51 53 54 56 57 59 60 62 63 65 66 67 69 70 70 68 67 66 64 62 60 59 57 55 53 50 48 45 42 40 38 36 33 30 27 25 23 21
45 47 48 50 51 53 54 56 57 59 61 63 64 65 66 68 68 69 69 67 66 64 62 60 58 57 55 53 50 48 46 44 41 39 37 35 32 29 26 24 22 21 19
46 48 50 51 53 54 56 58 59 62 63 64 65 66 68 69 68 67 65 64 63 61 59 57 55 53 51 49 47 44 42 40 37 35 33 31 29 26 23 21 19 18 16
48 50 51 53 55 56 58 60 62 64 65 65 66 67 68 68 67 65 63 61 59 57 55 54 52 50 48 45 43 40 38 35 33 31 30 28 26 23 21 19 17 16 14
50 51 53 55 57 59 61 63 64 65 65 66 67 67 66 65 63 61 59 57 55 54 52 51 49 46 44 41 39 36 34 32 31 29 27 25 23 21 19 17 15 13 12
52 54 56 57 60 62 63 64 65 66 66 67 66 65 63 61 60 58 56 54 52 50 49 47 44 42 39 37 35 33 31 29 28 26 24 22 20 19 17 15 13 12 12
54 56 58 60 62 63 64 65 66 67 67 65 63 62 60 59 57 55 53 51 50 48 45 43 41 39 37 35 33 31 29 28 26 24 22 21 19 16 15 14 13 12 12
56 58 61 63 64 65 65 66 66 66 64 62 60 59 58 57 55 53 52 50 48 46 43 41 40 38 35 33 31 29 28 26 25 23 21 19 17 16 15 14 13 13 12
Wind_Direction
278 278 279 280 281 281 281 281 282 283 284 286 287 289 291 292 293 294 295 296 297 298 300 301 301 301 301 300 300 300 300 300 299 299 299 298 298 297 296 296 295 294 293
279 280 280 281 281 281 281 282 283 284 285 287 289 290 292 293 294 295 296 296 297 299 300 301 301 301 301 301 301 301 300 300 300 300 299 298 298 297 296 296 295 294 293
280 281 281 281 281 281 281 282 284 286 287 289 290 291 293 294 295 295 296 297 298 299 300 301 301 302 302 302 302 301 301 300 300 300 299 299 298 298 297 296 296 295 294
281 281 281 281 281 282 282 284 286 287 289 290 291 293 294 294 295 295 296 298 299 300 301 301 301 301 302 302 302 301 301 301 301 300 300 300 299 299 298 297 296 296 295
281 281 282 281 281 282 284 285 286 288 289 290 292 293 294 294 295 296 297 298 299 300 301 301 301 302 302 302 302 302 301 301 301 301 301 301 301 300 299 298 298 297 297
281 281 282 282 283 284 285 286 287 289 290 291 292 293 294 294 295 296 298 298 300 300 301 301 301 302 302 302 302 302 302 302 302 302 302 302 301 300 300 299 299 298 298
281 281 281 283 284 284 285 287 288 289 290 291 292 293 294 294 295 297 298 299 300 300 301 301 302 302 302 302 302 302 303 302 302 302 303 303 302 301 301 300 300 301 301
281 281 283 284 285 285 286 287 288 289 290 291 292 293 294 295 296 297 298 299 300 300 300 301 301 302 302 302 302 303 303 303 302 303 303 303 303 303 302 302 302 302 301
282 283 284 284 285 285 286 287 288 289 291 292 293 294 295 296 297 297 298 299 300 300 300 301 302 302 302 303 303 303 303 303 303 303 304 304 304 303 303 303 303 303 302
283 284 284 285 285 286 287 288 289 290 292 293 294 295 296 297 297 298 299 299 300 300 301 301 302 302 303 303 303 303 303 303 303 304 304 304 304 304 304 304 304 303 303
284 285 285 286 287 287 288 289 290 292 293 294 295 296 297 298 298 299 299 300 300 301 301 302 302 303 303 303 303 304 304 304 304 304 305 305 304 304 304 304 304 303 303
285 285 286 287 287 288 290 291 292 293 294 295 296 297 298 299 299 300 300 301 301 301 302 303 303 303 303 303 304 304 304 305 305 305 305 305 305 304 304 303 303 302 302
286 287 288 288 289 290 292 293 294 295 296 296 297 298 299 300 300 300 301 301 301 302 303 303 304 304 304 304 304 305 305 305 305 305 305 305 305 304 304 303 302 301 301
287 288 289 290 291 292 293 294 295 296 297 298 299 300 300 301 301 301 301 302 302 303 304 304 304 304 304 304 305 305 305 305 305 305 305 305 304 304 304 303 302 301 300
288 289 290 292 293 294 295 296 297 298 299 300 300 301 301 301 301 302 302 303 303 304 304 304 305 305 305 305 305 305 305 305 305 306 305 305 305 304 303 303 302 301 299
289 291 292 293 294 295 296 297 299 300 301 301 302 302 302 302 303 303 304 304 305 305 305 305 305 306 306 306 306 306 305 305 305 305 305 305 305 304 303 302 301 299 298
290 291 293 294 295 296 297 299 300 301 302 303 303 303 303 304 304 304 305 305 305 305 305 305 306 306 306 306 306 306 306 306 306 306 305 305 304 304 303 301 298 296 295
291 292 294 295 296 298 299 300 301 302 303 304 304 304 304 304 305 305 305 305 305 305 305 305 305 306 306 306 306 306 306 306 306 306 305 305 304 304 302 300 296 294 292
292 293 295 296 298 299 300 301 302 303 304 304 304 304 305 305 306 306 306 306 305 305 305 305 305 306 306 306 306 306 306 305 305 304 305 305 304 303 300 298 295 292 290
293 295 296 298 299 300 302 303 303 304 305 305 305 305 305 306 306 307 306 306 306 306 306 305 305 306 306 306 306 306 306 305 304 304 304 304 303 301 298 295 292 290 287
294 296 298 299 300 301 302 303 304 305 306 306 306 306 307 307 307 307 307 307 307 307 306 305 305 306 306 305 305 305 305 305 305 304 304 303 302 299 295 292 289 286 283
296 298 299 300 301 302 304 304 305 306 307 307 307 308 308 308 308 308 307 308 307 307 307 306 306 305 304 304 304 304 304 304 304 304 303 303 301 297 292 288 284 281 277
297 299 300 301 302 304 305 306 307 307 307 308 308 308 308 308 308 308 308 308 308 307 307 306 306 305 304 303 303 303 302 303 303 304 303 302 299 294 289 283 278 273 270
299 300 301 302 304 305 306 307 307 308 308 308 309 309 309 309 309 309 309 309 308 308 308 307 306 305 304 303 302 301 300 301 302 302 301 300 297 292 285 276 269 265 263
300 301 302 303 304 305 306 307 308 308 308 308 308 309 309 309 309 309 309 309 309 308 307 306 305 305 303 302 300 299 298 298 299 298 297 296 293 288 280 271 263 258 256
301 302 303 304 305 306 307 307 308 309 309 308 308 309 309 309 309 309 308 308 308 307 306 305 304 303 302 300 298 297 296 296 295 294 292 290 286 282 276 268 260 255 253
Height
5725 5724 5723 5722 5721 5720 5719 5717 5716 5714 5712 5710 5708 5706 5703 5700 5697 5694 5691 5687 5684 5680 5676 5672 5667 5663 5658 5653 5649 5644 5639 5634 5631 5629 5622 5616 5611 5606 5600 5594 5589 5583 5578
5717 5716 5715 5714 5713 5711 5710 5708 5707 5705 5703 5701 5699 5696 5694 5690 5687 5684 5680 5677 5673 5669 5665 5660 5655 5650 5646 5641 5636 5630 5625 5620 5615 5612 5608 5601 5595 5589 5583 5577 5571 5565 5559
5708 5708 5707 5705 5704 5703 5701 5700 5698 5696 5694 5692 5689 5687 5684 5680 5677 5673 5670 5666 5662 5658 5653 5648 5643 5637 5632 5627 5622 5616 5611 5605 5599 5595 5591 5584 5578 5571 5565 5559 5552 5546 5540
5700 5699 5698 5697 5695 5694 5693 5691 5689 5687 5685 5682 5679 5677 5673 5670 5666 5662 5659 5655 5650 5646 5641 5635 5629 5624 5618 5613 5607 5601 5595 5589 5583 5577 5572 5566 5559 5552 5544 5539 5534 5527 5520
5691 5690 5689 5688 5686 5685 5683 5682 5680 5677 5675 5672 5669 5666 5663 5659 5655 5651 5647 5643 5638 5633 5628 5622 5616 5610 5604 5598 5592 5586 5579 5573 5566 5559 5554 5547 5540 5532 5525 5518 5512 5507 5500
5682 5681 5680 5679 5677 5676 5674 5672 5670 5667 5665 5662 5659 5655 5652 5648 5644 5639 5635 5630 5625 5620 5614 5608 5602 5596 5589 5582 5576 5569 5562 5555 5548 5541 5535 5528 5520 5511 5504 5496 5489 5484 5480
5673 5672 5671 5669 5668 5666 5664 5662 5660 5657 5654 5651 5648 5644 5640 5636 5632 5627 5622 5617 5612 5606 5600 5594 5588 5580 5573 5566 5560 5553 5545 5536 5528 5521 5515 5508 5499 5492 5483 5476 5467 5460 5454
5664 5663 5662 5660 5658 5656 5654 5652 5649 5646 5643 5640 5636 5633 5628 5624 5619 5614 5609 5604 5598 5592 5585 5579 5572 5565 5557 5549 5543 5536 5528 5520 5511 5503 5495 5488 5479 5470 5460 5453 5445 5438 5433
5655 5654 5652 5650 5648 5646 5644 5641 5639 5636 5632 5629 5625 5621 5616 5611 5606 5600 5595 5589 5583 5577 5570 5563 5556 5549 5541 5532 5525 5519 5512 5503 5493 5485 5477 5468 5459 5450 5440 5431 5424 5416 5411
5646 5644 5642 5640 5638 5636 5633 5631 5628 5624 5621 5617 5613 5608 5603 5598 5592 5586 5580 5574 5569 5563 5556 5548 5540 5532 5524 5515 5507 5499 5492 5485 5476 5468 5459 5450 5441 5432 5423 5413 5404 5397 5391
5636 5634 5632 5630 5628 5625 5623 5620 5616 5613 5609 5605 5601 5596 5590 5584 5578 5571 5565 5558 5552 5546 5540 5532 5524 5515 5507 5498 5489 5480 5473 5465 5458 5450 5442 5433 5424 5415 5406 5397 5389 5381 5376
5626 5624 5622 5620 5617 5615 5612 5608 5605 5601 5597 5592 5587 5582 5576 5570 5563 5556 5549 5542 5535 5529 5523 5515 5507 5498 5489 5481 5471 5463 5454 5445 5437 5430 5422 5415 5406 5398 5390 5383 5376 5369 5363
5616 5614 5612 5609 5606 5603 5600 5596 5592 5588 5584 5579 5574 5568 5562 5555 5548 5541 5533 5526 5518 5511 5505 5497 5489 5480 5472 5463 5454 5445 5436 5427 5419 5411 5404 5397 5389 5382 5375 5369 5363 5357 5352
5606 5604 5601 5598 5595 5592 5588 5584 5580 5575 5570 5565 5559 5553 5547 5540 5533 5525 5517 5510 5502 5494 5487 5480 5471 5463 5454 5445 5437 5428 5419 5410 5401 5394 5387 5380 5373 5367 5360 5355 5350 5345 5341
5595 5593 5590 5587 5583 5580 5576 5571 5567 5562 5556 5550 5544 5538 5531 5525 5517 5509 5501 5493 5485 5476 5468 5461 5453 5444 5436 5428 5419 5411 5403 5394 5386 5379 5372 5365 5359 5353 5347 5342 5338 5334 5331
5584 5581 5578 5575 5571 5567 5563 5559 5553 5548 5542 5535 5528 5522 5515 5508 5500 5492 5483 5475 5466 5457 5449 5442 5434 5425 5417 5409 5402 5394 5387 5379 5371 5365 5358 5352 5346 5340 5335 5331 5327 5324 5322
5573 5570 5566 5563 5559 5555 5550 5545 5540 5535 5527 5520 5513 5505 5498 5490 5482 5474 5465 5457 5449 5439 5431 5423 5415 5407 5399 5392 5384 5377 5370 5363 5356 5350 5344 5339 5333 5329 5325 5321 5318 5316 5314
5561 5557 5554 5550 5546 5541 5536 5531 5526 5520 5514 5506 5498 5489 5481 5473 5465 5456 5448 5440 5432 5422 5413 5405 5397 5389 5382 5375 5368 5361 5355 5349 5343 5337 5332 5327 5322 5318 5315 5312 5310 5308 5307
5548 5545 5541 5537 5532 5527 5522 5516 5510 5504 5497 5491 5483 5474 5465 5457 5448 5439 5429 5421 5413 5405 5396 5388 5380 5373 5366 5359 5352 5346 5340 5335 5330 5325 5320 5316 5312 5308 5306 5303 5302 5300 5300
5536 5532 5528 5523 5518 5513 5507 5501 5495 5488 5481 5473 5466 5457 5448 5440 5431 5422 5412 5403 5394 5387 5379 5371 5364 5357 5351 5344 5338 5332 5327 5322 5318 5313 5310 5306 5302 5300 5297 5296 5294 5294 5293
5523 5518 5514 5509 5504 5498 5492 5485 5479 5472 5464 5456 5448 5439 5430 5421 5413 5404 5395 5386 5377 5370 5362 5355 5349 5343 5336 5330 5325 5320 5315 5311 5307 5303 5300 5297 5294 5292 5290 5289 5288 5288 5288
5509 5505 5500 5494 5489 5483 5476 5469 5462 5455 5446 5438 5430 5421 5412 5403 5394 5386 5378 5369 5361 5354 5347 5340 5334 5328 5323 5317 5313 5308 5305 5301 5297 5294 5291 5289 5286 5284 5283 5282 5282 5282 5283
5495 5490 5485 5479 5473 5467 5460 5453 5445 5437 5429 5421 5412 5404 5395 5386 5377 5369 5361 5354 5346 5339 5332 5326 5320 5315 5310 5305 5301 5298 5295 5292 5289 5286 5283 5281 5279 5278 5277 5277 5277 5277 5278
5481 5475 5470 5464 5457 5451 5443 5436 5428 5419 5411 5403 5394 5386 5377 5369 5361 5353 5345 5339 5332 5325 5319 5313 5307 5303 5298 5294 5291 5288 5285 5283 5280 5278 5276 5275 5273 5272 5271 5271 5272 5273 5274
5466 5460 5454 5448 5441 5434 5426 5418 5410 5402 5393 5385 5376 5368 5361 5353 5345 5338 5331 5325 5318 5313 5307 5301 5296 5291 5287 5283 5281 5278 5276 5274 5272 5271 5269 5268 5267 5266 5266 5266 5267 5268 5270
5450 5444 5438 5431 5424 5416 5409 5401 5393 5384 5376 5368 5360 5352 5345 5337 5330 5324 5317 5311 5305 5300 5294 5290 5285 5280 5277 5274 5271 5269 5267 5266 5264 5263 5262 5262 5261 5261 5261 5262 5263 5264 5266